     2              OBSERVATION DATA    GPS                 RINEX VERSION / TYPE
teqc 1997Jul24 19970902 21:15:18UTC                         PGM / RUN BY / DATE
                                                            COMMENT
BIT 2 OF LLI FLAGS DATA COLLECTED UNDER A-S CONDITION       COMMENT
BIT 2 OF LLI FLAGS DATA COLLECTED UNDER A-S CONDITION       COMMENT
Original Marker Name: 55492.SOLE                            COMMENT
Campaign Name: Salt. Tr. Crust. Monit. May-Jun 1986         COMMENT
4-Character Station Name: SOLE                              COMMENT
6-Character Antenna Code: TI4100                            COMMENT
Vertical Measurement Point: PAE                             COMMENT
Vertical Offset to Rinex Ref. Point: 0.0000                 COMMENT
Radial Measurement Point: RRP                               COMMENT
Radial Offset to Rinex Ref. Point: 0.0000                   COMMENT
Antenna Height from Field Measurement: 1.1430 m             COMMENT
Original XYZ: -2080185.2836 -3925158.8787 2819867.2008      COMMENT
New XYZ position is based on association with SCEC monument COMMENT
E1E9W3H0+0011. Position of that monument is believed to be  COMMENT
valid to within 1 m horizontally; vertical accuracy         COMMENT
should be no worse than 3-times this value.                 COMMENT
                                                            COMMENT
Revised Rinex header created by UCSD GPS archive for        COMMENT
GSAC on 14-Apr-1999 (1999:104) 03:24:45 GMT                 COMMENT
For assistance contact dagnew@ucsd.edu or hjohnson@ucsd.edu COMMENT
                                                            COMMENT
SOLEDAD                                                     MARKER NAME
5 NATIONAL GEODETIC SURVEY                                  OBSERVER / AGENCY
UT-16 TI 4100 1.0                                           REC # / TYPE / VERS
4011 TI 4100                                                ANT # / TYPE
 -2471753.0000 -4611954.0000  3636992.0000                  APPROX POSITION XYZ
        1.1430        0.0000        0.0000                  ANTENNA: DELTA H/E/N
     1     1     0                                          WAVELENGTH FACT L1/2
     4    P1    P2    L1    L2                              # / TYPES OF OBSERV
     6                                                      INTERVAL
  1986     6    18     4    11   11.000000                  TIME OF FIRST OBS
  1986     6    18     4    31   59.000000                  TIME OF LAST OBS
     0                                                      # OF SATELLITES
                                                            END OF HEADER
 86  6 18  4 11 11.0800000  0  3G12G13G 7
  21606769.432    21606771.674    44741016.050 8 -61317672.288 9
  22276933.353    22276931.152    74275296.005 9 -82521255.941 9
  24685582.133    24685582.218    13109442.202 9 -31655246.713 9
 86  6 18  4 11 17.0800000  0  3G12G13G 7
  21609395.205    21609399.503    44754820.875 9 -61306915.275 9
  22278829.693    22278829.074    74285264.305 9 -82513488.431 8
  24684741.811    24684742.470    13105034.102 9 -31658681.588 9
 86  6 18  4 11 23.0800000  0  3G12G13G 7
  21612026.418    21612028.610    44768645.769 9 -61296142.631 9
  22280726.684    22280727.653    74295233.805 9 -82505719.991 8
  24683909.961    24683912.136    13100659.605 9 -31662090.669 9
 86  6 18  4 11 29.0800000  0  3G12G13G 7
  21614660.018    21614662.996    44782490.707 9 -61285354.363 8
  22282624.040    22282625.109    74305204.445 9 -82497950.653 9
  24683082.031    24683084.406    13096312.903 9 -31665477.706 9
 86  6 18  4 11 35.0800000  0  3G12G13G 7
  21617299.266    21617302.713    44796355.662 9 -61274550.516 9
  22284521.504    22284522.401    74315176.274 9 -82490180.407 8
  24682260.512    24682262.186    13091990.963 9 -31668845.441 9
 86  6 18  4 11 41.0800000  0  3G12G13G 7
  21619940.564    21619944.902    44810240.629 8 -61263731.068 9
  22286419.267    22286420.422    74325149.231 9 -82482409.267 8
  24681442.198    24681443.671    13087691.272 9 -31672195.843 8
 86  6 18  4 11 47.0800000  0  3G12G13G 7
  21622587.078    21622590.321    44824145.568 8 -61252896.061 9
  22288317.511    22288319.338    74335123.306 9 -82474637.258 8
  24680627.890    24680628.663    13083411.731 9 -31675530.548 8
 86  6 18  4 11 53.0800000  0  3G12G13G 7
  21625236.901    21625239.668    44838070.454 8 -61242045.500 8
  22290215.324    22290216.908    74345098.602 9 -82466864.305 8
  24679817.303    24679818.863    13079152.527 9 -31678849.403 9
 86  6 18  4 11 59.0800000  0  3G12G13G 7
  21627890.959    21627894.392    44852015.268 8 -61231179.411 9
  22292112.831    22292114.565    74355075.068 9 -82459090.427 9
                  24679012.668                   -31682149.467 9
 86  6 18  4 12  5.0800000  0  3G12G13G 7
  21630547.739    21630550.732    44865979.974 8 -61220297.825 8
  22294012.440    22294013.187    74365052.695 9 -82451315.656 9
  24678242.934    24678213.557    13038495.254 9 -31685425.403 9
 86  6 18  4 12 11.0800000  0  3G12G13G 7
  21633208.348    21633212.496    44879964.644 9 -61209400.677 8
  22295911.041    22295912.417    74375031.426 9 -82443540.029 8
  24677418.496    24677420.313    13034327.553 9 -31688672.633 9
 86  6 18  4 12 17.0800000  0  3G12G13G 7
  21635873.857    21635877.740    44893969.161 9 -61198488.063 8
  22297809.771    22297812.041    74385011.229 8 -82435763.552 8
  24676632.005    24676632.163    13030196.985 9 -31691891.242 9
 86  6 18  4 12 23.0800000  0  3G12G13G 7
  21638542.671    21638546.534    44907993.589 9 -61187559.935 9
  22299709.494    22299711.115    74394992.285 9 -82427986.107 8
  24675852.355    24675853.271    13026098.785 9 -31695084.253 9
 86  6 18  4 12 29.0800000  0  3G12G13G 7
  21641215.435    21641218.857    44922037.886 9 -61176616.329 9
  22301608.210    22301610.238    74404974.491 9 -82420207.762 9
  24675078.256    24675078.829    13022029.300 9 -31698255.280 8
 86  6 18  4 12 35.0800000  0  3G12G13G 7
  21643891.823    21643894.806    44936101.873 9 -61165657.365 9
  22303507.641    22303510.312    74414957.801 9 -82412428.562 9
  24674308.250    24674308.693    13017984.301 9 -31701407.227 9
 86  6 18  4 12 41.0800000  0  3G12G13G 7
  21646571.470    21646575.443    44950185.630 8 -61154683.012 8
  22305407.565    22305410.194    74424942.281 9 -82404648.456 9
  24673542.479    24673542.221    13013961.461 9 -31704541.894 9
 86  6 18  4 12 47.0800000  0  3G12G13G 7
  21649256.669    21649258.349    44964289.162 9 -61143693.247 8
  22307307.333    22307310.755    74434927.922 9 -82396867.441 9
  24672780.429    24672781.717    13009958.760 9 -31707660.873 8
 86  6 18  4 12 53.0800000  0  3G12G13G 7
  21651944.590    21651947.808    44978412.427 9 -61132688.102 9
  22309208.981    22309210.386    74444914.693 9 -82389085.545 9
  24672021.155    24672022.399    13005976.552 9 -31710763.889 9
 86  6 18  4 12 59.0800000  0  3G12G13G 7
  21654635.268    21654637.289    44992555.366 9 -61121667.634 9
  22311108.505    22311112.078    74454902.516 9 -82381302.828 9
                  24671270.022                   -31713847.743 9
 86  6 18  4 13  5.0800000  0  3G12G13G 7
  21657331.743    21657332.625    45006718.023 9 -61110631.794 9
  22313009.653    22313013.197    74464891.582 9 -82373519.143 8
  24670529.521    24670522.281    12965594.386 9 -31716907.231 8
 86  6 18  4 13 11.0800000  0  3G12G13G 7
  21660028.450    21660031.743    45020900.361 9 -61099580.625 9
  22314911.008    22314913.343    74474881.767 9 -82365734.568 9
  24669782.067    24669782.610    12961704.752 9 -31719937.868 9
 86  6 18  4 13 17.0800000  0  3G12G13G 7
  21662731.327    21662734.088    45035102.339 8 -61088514.151 8
  22316813.229    22316815.264    74484873.101 9 -82357949.121 9
  24669047.833    24669050.752    12957852.000 9 -31722940.025 9
 86  6 18  4 13 23.0800000  0  3G12G13G 7
  21665438.076    21665440.782    45049323.913 8 -61077432.404 8
  22318714.685    22318716.805    74494865.490 9 -82350162.843 8
  24668320.239    24668323.459    12954032.362 9 -31725916.757 9
 86  6 18  4 13 29.0800000  0  3G12G13G 7
  21668147.668    21668150.865    45063565.103 9 -61066335.373 9
  22320617.450    22320619.334    74504858.906 9 -82342375.760 8
  24667600.258    24667602.047    12950240.384 9 -31728871.534 8
 86  6 18  4 13 35.0800000  0  3G12G13G 7
  21670862.415    21670864.081    45077825.920 8 -61055223.052 9
  22322518.440    22322520.360    74514853.411 9 -82334587.833 8
  24666882.223    24666884.384    12946472.896 9 -31731807.230 9
 86  6 18  4 13 41.0800000  0  3G12G13G 7
  21673578.693    21673583.138    45092106.297 7 -61044095.491 7
  22324420.840    22324422.052    74524849.043 9 -82326799.021 8
  24666170.197    24666172.287    12942727.415 9 -31734725.791 9
 86  6 18  4 13 47.0800000  0  3G12G13G 7
  21676301.239    21676303.595    45106406.233 8 -61032952.690 8
  22326322.603    22326324.187    74534845.718 9 -82319009.417 8
  24665460.347    24665463.137    12939002.248 9 -31737628.507 8
 86  6 18  4 13 53.0800000  0  3G12G13G 7
  21679025.784    21679028.101    45120725.595 8 -61021794.734 8
  22328223.923    22328226.487    74544843.457 9 -82311218.968 9
  24664756.278    24664757.007    12935297.633 9 -31740515.217 9
 86  6 18  4 13 59.0800000  0  3G12G13G 7
  21681754.865    21681757.118    45135064.407 8 -61010621.638 9
  22330127.274    22330127.356    74554842.330 9 -82303427.634 8
                  24664057.302                   -31743382.555 9
 86  6 18  4 14  5.0800000  0  3G12G13G 7
  21684487.356    21684489.007    45149422.600 9 -60999433.455 9
  22332030.154    22332031.580    74564842.265 9 -82295635.480 8
  24663298.171    24663364.093    12895194.185 9 -31746225.232 9
 86  6 18  4 14 11.0800000  0  3G12G13G 7
  21687222.376    21687225.519    45163800.209 8 -60988230.118 7
  22333932.454    22333935.354    74574843.333 9 -82287842.430 8
  24662674.147    24662676.551    12891583.131 9 -31749038.708 8
 86  6 18  4 14 17.0800000  0  3G12G13G 7
  21689961.645    21689964.337    45178197.292 8 -60977011.613 8
  22335836.528    22335837.782    74584845.544 9 -82280048.492 9
  24661994.489    24661996.163    12888008.908 9 -31751823.820 9
 86  6 18  4 14 23.0800000  0  3G12G13G 7
  21692705.626    21692708.111    45192613.762 8 -60965778.025 8
  22337739.378    22337740.884    74594848.743 9 -82272253.803 9
  24661319.753    24661321.900    12884467.154 9 -31754583.616 9
 86  6 18  4 14 29.0800000  0  3G12G13G 7
  21695451.825    21695455.326    45207049.498 7 -60954529.398 9
  22339643.317    22339645.902    74604852.941 9 -82264458.315 9
  24660651.715    24660654.019    12880953.242 9 -31757321.719 9
 86  6 18  4 14 35.0800000  0  3G12G13G 7
  21698202.785    21698205.696    45221504.561 7 -60943265.721 7
  22341547.899    22341548.774    74614858.259 9 -82256661.963 8
  24659986.910    24659988.842    12877463.719 9 -31760040.834 9
 86  6 18  4 14 41.0800000  0  3G12G13G 7
  21700957.429    21700961.342    45235979.006 7 -60931986.931 8
  22343451.486    22343452.991    74624864.694 9 -82248864.737 8
  24659328.172    24659329.531    12873996.167 9 -31762742.820 8
 86  6 18  4 14 47.0800000  0  3G12G13G 7
  21703713.834    21703718.158    45250472.707 8 -60920693.148 8
  22345355.875    22345358.110    74634872.161 8 -82241066.717 8
  24658671.094    24658673.555    12870548.851 9 -31765429.040 9
 86  6 18  4 14 53.0800000  0  3G12G13G 7
  21706476.546    21706481.102    45264985.700 8 -60909384.313 8
  22347260.350    22347261.955    74644880.650 9 -82233267.896 8
  24658019.339    24658021.542    12867122.192 9 -31768099.152 9
 86  6 18  4 14 59.0800000  0  3G12G13G 7
  21709242.605    21709245.362    45279517.995 8 -60898060.463 9
  22349166.005    22349168.448    74654890.167 9 -82225468.260 9
                  24657374.080                   -31770749.489 8
 86  6 18  4 15  5.0800000  0  3G12G13G 7
  21712011.881    21712014.534    45294069.479 8 -60886721.642 8
  22351069.715    22351072.321    74664900.863 9 -82217667.713 9
  24656769.373    24656732.756    12827287.166 9 -31773374.573 8
 86  6 18  4 15 11.0800000  0  3G12G13G 7
  21714784.409    21714787.892    45308640.097 8 -60875367.920 8
  22352973.917    22352977.934    74674912.566 9 -82209866.393 8
  24656097.786    24656098.501    12823955.656 9 -31775970.473 9
 86  6 18  4 15 17.0800000  0  3G12G13G 7
  21717561.319    21717563.758    45323229.885 8 -60863999.244 9
  22354880.446    22354882.323    74684925.414 9 -82202064.166 9
  24655470.757    24655472.016    12820660.641 9 -31778538.023 9
 86  6 18  4 15 23.0800000  0  3G12G13G 7
  21720340.694    21720343.747    45337838.849 8 -60852615.642 7
  22356786.766    22356788.407    74694939.333 9 -82194261.112 8
  24654849.395    24654851.971    12817397.964 9 -31781080.374 8
 86  6 18  4 15 29.0800000  0  3G12G13G 7
  21723124.328    21723127.808    45352466.959 9 -60841217.110 8
  22358692.722    22358694.649    74704954.387 9 -82186457.169 9
  24654233.670    24654234.772    12814162.920 9 -31783601.183 9
 86  6 18  4 15 35.0800000  0  3G12G13G 7
  21725911.434    21725915.096    45367114.097 8 -60829803.767 8
  22360598.964    22360599.066    74714970.512 8 -82178652.401 8
  24653623.641    24653624.914    12810952.150 9 -31786103.084 8
 86  6 18  4 15 41.0800000  0  3G12G13G 7
  21728703.726    21728706.751    45381780.356 8 -60818375.513 7
  22362504.669    22362506.089    74724987.677 9 -82170846.803 7
  24653017.532    24653016.917    12807763.249 9 -31788587.937 8
 86  6 18  4 15 47.0800000  0  3G12G13G 7
  21731496.630    21731500.814    45396465.705 9 -60806932.403 8
  22364411.047    22364412.610    74735005.917 9 -82163040.382 8
  24652413.913    24652413.899    12804594.694 9 -31791056.935 8
 86  6 18  4 15 53.0800000  0  3G12G13G 7
  21734295.490    21734297.707    45411170.102 8 -60795474.431 9
  22366317.647    22366319.331    74745025.235 9 -82155233.116 8
  24651814.644    24651815.417    12801447.086 9 -31793509.625 9
 86  6 18  4 15 59.0800000  0  3G12G13G 7
  21737096.879    21737101.124    45425893.477 8 -60784001.675 9
  22368224.962    22368225.186    74755045.565 9 -82147425.055 8
                  24651220.999                   -31795942.289 8
 86  6 18  4 16  5.0800000  0  3G12G13G 7
  21739901.499    21739906.259    45440635.997 9 -60772513.997 9
  22370131.776    22370133.797    74765067.010 9 -82139616.128 9
  24650531.153    24650633.707    12761896.515 9 -31798349.359 8
 86  6 18  4 16 11.0800000  0  3G12G13G 7
  21742711.892    21742715.504    45455397.461 8 -60761011.553 8
  22372039.099    22372039.581    74775089.487 9 -82131806.406 9
  24650053.569    24650054.199    12758845.107 9 -31800727.155 8
 86  6 18  4 16 17.0800000  0  3G12G13G 7
  21745523.684    21745526.999    45470177.788 8 -60749494.426 8
  22373946.936    22373946.681    74785112.877 9 -82123995.964 8
  24649479.341    24649478.483    12755829.208 9 -31803076.798 8
 86  6 18  4 16 23.0800000  0  3G12G13G 7
  21748339.583    21748342.866    45484976.981 8 -60737962.598 8
  22375854.895    22375855.570    74795137.278 9 -82116184.740 8
  24648911.610    24648911.610    12752845.774 9 -31805401.540 8
 86  6 18  4 16 29.0800000  0  3G12G13G 7
  21751159.041    21751163.100    45499795.097 8 -60726416.007 8
  22377762.947    22377762.335    74805162.723 9 -82108372.699 8
  24648348.944    24648350.503    12749889.863 9 -31807704.869 8
 86  6 18  4 16 35.0800000  0  3G12G13G 7
  21753983.547    21753987.098    45514632.173 8 -60714854.663 8
  22379671.157    22379670.830    74815189.159 9 -82100559.887 8
  24647791.515    24647792.488    12746958.138 9 -31809989.324 8
 86  6 18  4 16 41.0800000  0  3G12G13G 7
  21756809.358    21756813.743    45529487.921 8 -60703278.763 8
  22381578.544    22381579.469    74825216.674 9 -82092746.242 9
  24647238.722    24647237.406    12744048.276 9 -31812256.741 8
 86  6 18  4 16 47.0800000  0  3G12G13G 7
  21759641.398    21759643.937    45544362.480 8 -60691688.198 8
  22383487.812    22383487.285    74835245.203 9 -82084931.802 9
  24646688.104    24646687.890    12741158.655 9 -31814508.408 9
 86  6 18  4 16 53.0800000  0  3G12G13G 7
  21762474.758    21762477.579    45559255.880 9 -60680082.960 8
  22385396.114    22385396.332    74845274.730 9 -82077116.574 9
  24646143.525    24646142.280    12738290.298 9 -31816743.498 8
 86  6 18  4 16 59.0800000  0  3G12G13G 7
  21765312.764    21765316.165    45574168.080 9 -60668463.072 9
  22387304.589    22387304.062    74855305.301 9 -82069300.542 8
                  24645601.493                   -31818958.354 8
 86  6 18  4 17  5.0800000  0  3G12G13G 7
  21768153.762    21768156.697    45589099.027 9 -60656828.574 8
  22389213.184    22389213.867    74865336.822 9 -82061483.773 8
  24645067.488    24645067.746    12699018.175 9 -31821147.336 8
 86  6 18  4 17 11.0800000  0  3G12G13G 7
  21770997.792    21771002.344    45604048.740 9 -60645179.448 9
  22391122.825    22391122.827    74875369.391 9 -82053666.171 8
  24644539.908    24644539.837    12696246.647 9 -31823306.994 8
 86  6 18  4 17 17.0800000  0  3G12G13G 7
  21773847.228    21773850.146    45619017.183 9 -60633515.735 9
  22393031.099    22393032.711    74885403.046 9 -82045847.742 8
  24644019.369    24644020.714    12693511.683 9 -31825438.523 9
 86  6 18  4 17 23.0800000  0  3G12G13G 7
  21776698.997    21776702.114    45634004.248 9 -60621837.503 8
  22394940.696    22394942.044    74895437.650 9 -82038028.573 8
  24643505.240    24643504.796    12690808.027 8 -31827545.283 9
 86  6 18  4 17 29.0800000  0  3G12G13G 7
  21779553.576    21779557.256    45649009.952 9 -60610144.756 8
  22396851.195    22396851.477    74905473.239 9 -82030208.623 8
  24642996.061    24642995.517    12688131.552 9 -31829630.850 8
 86  6 18  4 17 35.0800000  0  3G12G13G 7
  21782414.134    21782417.149    45664034.271 9 -60598437.488 9
  22398760.256    22398762.198    74915509.864 9 -82022387.871 9
  24642492.464    24642491.133    12685479.195 9 -31831697.621 8
 86  6 18  4 17 41.0800000  0  3G12G13G 7
  21785277.661    21785278.389    45679077.142 9 -60586715.772 8
  22400670.469    22400670.743    74925547.528 9 -82014566.313 8
  24641990.841    24641990.712    12682848.707 9 -31833747.351 8
 86  6 18  4 17 47.0800000  0  3G12G13G 7
  21788143.331    21788144.990    45694138.526 8 -60574979.631 9
  22402581.418    22402581.528    74935586.155 9 -82006744.002 8
  24641495.514    24641494.097    12680238.538 9 -31835781.255 8
 86  6 18  4 17 53.0800000  0  3G12G13G 7
  21791012.371    21791014.043    45709218.460 9 -60563229.041 9
  22404491.345    22404492.235    74945625.725 9 -81998920.959 9
  24641002.133    24641000.200    12677649.593 9 -31837798.620 8
 86  6 18  4 17 59.0800000  0  3G12G13G 7
  21793886.565    21793887.390    45724316.998 9 -60551463.950 7
  22406402.252    22406402.476    74955666.337 9 -81991097.107 8
                  24640512.615                   -31839795.230 7
 86  6 18  4 18  5.0800000  0  3G12G13G 7
  21796761.936    21796763.556    45739434.137 9 -60539684.375 8
  22408313.531    22408313.404    74965707.952 9 -81983272.468 8
  24639972.314    24640030.911    12638648.603 9 -31841765.714 7
 86  6 18  4 18 11.0800000  0  3G12G13G 7
  21799642.624    21799643.975    45754569.677 8 -60527890.455 8
  22410225.174    22410223.624    74975750.527 9 -81975447.075 9
  24639558.521    24639555.860    12636157.472 9 -31843706.764 8
 86  6 18  4 18 17.0800000  0  3G12G13G 7
  21802526.706    21802527.513    45769723.765 8 -60516082.080 8
  22412135.802    22412135.933    74985794.097 9 -81967620.918 9
  24639091.126    24639088.908    12633702.406 9 -31845619.798 8
 86  6 18  4 18 23.0800000  0  3G12G13G 7
  21805412.312    21805414.900    45784896.407 9 -60504259.242 9
  22414046.909    22414046.812    74995838.643 9 -81959793.993 8
  24638629.111    24638628.281    12631279.027 9 -31847508.138 7
 86  6 18  4 18 29.0800000  0  3G12G13G 7
  21808302.994    21808304.706    45800087.410 9 -60492422.100 7
  22415959.333    22415958.377    75005884.218 9 -81951966.264 8
  24638174.164    24638172.375    12628882.733 9 -31849375.373 7
 86  6 18  4 18 35.0800000  0  3G12G13G 7
  21811199.278    21811200.218    45815296.761 8 -60480570.670 8
  22417870.075    22417870.707    75015930.812 9 -81944137.752 9
  24637720.505    24637720.119    12626510.343 9 -31851223.985 8
 86  6 18  4 18 41.0800000  0  3G12G13G 7
  21814096.671    21814097.285    45830524.439 9 -60468704.945 8
  22419782.241    22419782.065    75025978.339 9 -81936308.500 9
  24637273.172    24637273.243    12624159.602 9 -31853055.734 7
 86  6 18  4 18 47.0800000  0  3G12G13G 7
  21816996.536    21816999.687    45845770.477 8 -60456824.912 8
  22421693.956    22421694.946    75036026.870 9 -81928478.482 9
  24636830.016    24636829.830    12621829.269 9 -31854871.581 7
 86  6 18  4 18 53.0800000  0  3G12G13G 7
  21819902.469    21819904.059    45861034.757 9 -60444930.661 9
  22423607.031    22423607.255    75046076.298 9 -81920647.740 8
  24636391.783    24636392.141    12619520.465 9 -31856670.646 8
 86  6 18  4 18 59.0800000  0  3G12G13G 7
  21822810.551    21822812.521    45876317.344 8 -60433022.159 8
  22425519.218    22425520.716    75056126.776 9 -81912816.190 8
                  24635956.426                   -31858448.687 8
 86  6 18  4 19  5.0800000  0  3G12G13G 7
  21825720.944    21825724.581    45891618.230 8 -60421099.379 8
  22427431.406    22427431.995    75066178.221 9 -81904983.889 9
  24635529.110    24635529.053    12580800.783 7 -31860200.278 8
 86  6 18  4 19 11.0800000  0  3G12G13G 7
  21828636.485    21828638.887    45906937.402 9 -60409162.364 8
  22429343.421    22429344.991    75076230.664 8 -81897150.816 9
  24635108.592    24635110.308    12578590.809 9 -31861922.313 8
 86  6 18  4 19 17.0800000  0  3G12G13G 7
  21831554.737    21831558.120    45922274.790 7 -60397211.160 9
  22431256.274    22431258.902    75086284.070 9 -81889316.987 8
  24634695.685    24634694.870    12576416.690 9 -31863616.433 7
 86  6 18  4 19 23.0800000  0  3G12G13G 7
  21834476.538    21834480.315    45937630.331 8 -60385245.800 8
  22433169.778    22433171.333    75096338.482 9 -81881482.381 9
  24634287.673    24634286.028    12574274.081 8 -31865285.985 7
 86  6 18  4 19 29.0800000  0  3G12G13G 7
  21837402.643    21837404.867    45953004.155 7 -60373266.200 8
  22435084.298    22435085.846    75106393.889 9 -81873646.988 7
  24633884.812    24633883.167    12572158.367 8 -31866934.598 7
 86  6 18  4 19 35.0800000  0  3G12G13G 7
  21840332.311    21840334.735    45968396.112 7 -60361272.474 9
  22436998.488    22436999.035    75116450.236 9 -81865810.878 8
  24633486.273    24633485.257    12570066.441 9 -31868564.669 8
 86  6 18  4 19 41.0800000  0  3G12G13G 7
  21843263.230    21843267.640    45983806.169 8 -60349264.640 9
  22438910.991    22438912.846    75126507.484 9 -81857974.051 8
  24633092.226    24633093.414    12567996.169 8 -31870177.861 8
 86  6 18  4 19 47.0800000  0  3G12G13G 7
  21846199.877    21846202.623    45999234.353 9 -60337242.672 9
  22440826.376    22440825.878    75136565.726 9 -81850136.451 9
  24632702.101    24632703.331    12565946.321 9 -31871775.154 8
 86  6 18  4 19 53.0800000  0  3G12G13G 7
  21849138.531    21849142.883    46014680.644 8 -60325206.600 9
  22442739.580    22442741.500    75146624.991 9 -81842298.070 9
  24632316.153    24632317.169    12563918.348 9 -31873355.383 8
 86  6 18  4 19 59.0800000  0  3G12G13G 7
  21852082.111    21852085.697    46030144.907 9 -60313156.531 9
  22444654.293    22444654.238    75156685.182 9 -81834458.961 9
                  24631935.085                   -31874914.325 7
 86  6 18  4 20  5.0800000  0  3G12G13G 7
  21855027.433    21855031.273    46045627.197 8 -60301092.402 9
  22446569.113    22446569.595    75166746.295 9 -81826619.127 9
  24631560.341    24631563.447    12525481.324 9 -31876446.599 8
 86  6 18  4 20 11.0800000  0  3G12G13G 7
  21857977.330    21857980.012    46061127.509 8 -60289014.232 9
  22448483.597    22448483.263    75176808.353 8 -81818778.560 8
  24631193.253    24631194.040    12523552.699 8 -31877949.400 7
 86  6 18  4 20 17.0800000  0  3G12G13G 7
  21860930.969    21860932.942    46076645.836 8 -60276922.033 8
  22450398.374    22450398.434    75186871.445 9 -81810937.191 9
  24630834.035    24630833.392    12521659.804 9 -31879424.379 8
 86  6 18  4 20 23.0800000  0  3G12G13G 7
  21863886.901    21863889.973    46092181.984 8 -60264815.944 9
  22452313.803    22452314.070    75196935.424 9 -81803095.130 8
  24630479.225    24630481.314    12519798.076 9 -31880875.072 8
 86  6 18  4 20 29.0800000  0  3G12G13G 7
  21866847.734    21866848.627    46107736.063 8 -60252695.875 8
  22454229.088    22454229.055    75207000.362 9 -81795252.319 9
  24630129.394    24630131.912    12517963.120 9 -31882304.911 8
 86  6 18  4 20 35.0800000  0  3G12G13G 7
  21869810.703    21869812.758    46123308.023 8 -60240561.877 8
  22456144.746    22456145.836    75217066.244 9 -81787408.775 8
  24629784.771    24629787.132    12516151.902 9 -31883716.240 8
 86  6 18  4 20 41.0800000  0  3G12G13G 7
  21872777.399    21872779.845    46138897.870 9 -60228413.931 8
  22458060.990    22458060.942    75227133.108 9 -81779564.471 8
  24629444.098    24629446.087    12514362.143 9 -31885110.847 7
 86  6 18  4 20 47.0800000  0  3G12G13G 7
  21875747.419    21875749.045    46154505.574 8 -60216252.078 8
  22459976.697    22459976.886    75237200.911 9 -81771719.435 9
  24629106.515    24629109.807    12512592.840 8 -31886489.513 6
 86  6 18  4 20 53.0800000  0  3G12G13G 7
  21878721.620    21878721.933    46170131.094 9 -60204076.353 9
  22461893.185    22461893.431    75247269.574 9 -81763873.718 8
  24628774.027    24628777.418    12510845.451 8 -31887851.109 8
 86  6 18  4 20 59.0800000  0  3G12G13G 7
  21881698.343    21881700.206    46185774.430 8 -60191886.729 7
  22463809.572    22463808.759    75257339.204 8 -81756027.249 8
                  24628450.210                   -31889191.038 8
 86  6 18  4 21  5.0800000  0  3G12G13G 7
  21884678.462    21884679.465    46201435.541 8 -60179683.278 8
  22465726.310    22465725.611    75267409.804 9 -81748180.034 9
  24628033.040    24628128.196    12472678.641 9 -31890503.858 8
 86  6 18  4 21 11.0800000  0  3G12G13G 7
  21887661.427    21887663.229    46217114.449 8 -60167465.936 9
  22467642.031    22467642.256    75277481.417 9 -81740332.026 7
  24627812.307    24627815.641    12471031.750 9 -31891787.092 8
 86  6 18  4 21 17.0800000  0  3G12G13G 7
  21890647.008    21890650.806    46232811.072 8 -60155234.812 7
  22469559.077    22469560.417    75287553.927 9 -81732483.329 9
  24627505.289    24627508.980    12469419.712 8 -31893042.824 8
 86  6 18  4 21 23.0800000  0  3G12G13G 7
  21893638.291    21893641.491    46248525.457 9 -60142989.829 8
  22471475.736    22471476.948    75297627.333 9 -81724633.915 9
  24627204.366    24627207.557    12467839.107 8 -31894274.473 8
 86  6 18  4 21 29.0800000  0  3G12G13G 7
  21896632.486    21896635.515    46264257.540 8 -60130731.068 8
  22473393.275    22473392.741    75307701.644 9 -81716783.807 8
  24626907.479    24626912.115    12466284.918 7 -31895485.509 8
 86  6 18  4 21 35.0800000  0  3G12G13G 7
  21899630.251    21899632.045    46280007.191 9 -60118458.619 9
  22475310.234    22475310.573    75317776.842 9 -81708932.996 8
  24626617.003    24626620.065    12464754.470 9 -31896678.070 8
 86  6 18  4 21 41.0800000  0  3G12G13G 7
  21902629.883    21902631.184    46295774.491 9 -60106172.406 7
  22477227.595    22477227.583    75327852.930 9 -81701081.492 8
  24626330.761    24626333.366    12463245.487 8 -31897853.908 8
 86  6 18  4 21 47.0800000  0  3G12G13G 7
  21905633.647    21905635.327    46311559.344 8 -60093872.529 7
  22479144.497    22479144.528    75337929.927 8 -81693229.298 8
  24626047.039    24626048.327    12461756.861 9 -31899013.873 8
 86  6 18  4 21 53.0800000  0  3G12G13G 7
  21908641.483    21908643.363    46327361.691 9 -60081559.012 8
  22481061.750    22481062.711    75348007.795 9 -81685376.413 8
  24625769.126    24625769.569    12460290.481 9 -31900156.512 7
 86  6 18  4 21 59.0800000  0  3G12G13G 7
  21911651.929    21911653.824    46343181.495 9 -60069231.911 7
  22482979.754    22482981.009    75358086.578 9 -81677522.807 9
                  24625496.693                   -31901277.115 7
 86  6 18  4 22  5.0800000  0  3G12G13G 7
  21914665.102    21914666.538    46359018.839 9 -60056891.113 8
  22484898.481    22484898.068    75368166.301 9 -81669668.474 9
  24625228.667    24625227.480    12422406.775 8 -31902370.437 8
 86  6 18  4 22 11.0800000  0  3G12G13G 7
  21917682.796    21917684.508    46374873.677 9 -60044536.726 7
  22486816.413    22486816.974    75378246.988 9 -81661813.396 8
  24624968.412    24624971.603    12421041.594 9 -31903434.213 8
 86  6 18  4 22 17.0800000  0  3G12G13G 7
  21920703.134    21920705.132    46390745.979 9 -60032168.693 8
  22488734.711    22488735.200    75388328.516 9 -81653957.655 8
  24624715.397    24624716.885    12419712.078 8 -31904470.601 8
 86  6 18  4 22 23.0800000  0  3G12G13G 7
  21923727.406    21923728.754    46406635.748 9 -60019787.053 7
  22490653.609    22490653.404    75398411.002 9 -81646101.160 8
  24624468.020    24624469.965    12418412.760 9 -31905483.042 7
 86  6 18  4 22 29.0800000  0  3G12G13G 7
  21926754.097    21926754.976    46422542.945 9 -60007391.852 7
  22492572.601    22492573.190    75408494.404 9 -81638243.966 8
  24624226.108    24624227.611    12417139.868 9 -31906474.913 8
 86  6 18  4 22 35.0800000  0  3G12G13G 7
  21929784.144    21929785.713    46438467.502 8 -59994983.098 7
  22494491.399    22494492.875    75418578.803 9 -81630385.995 8
  24623987.374    24623988.976    12415890.493 9 -31907448.435 7
 86  6 18  4 22 41.0800000  0  3G12G13G 7
  21932817.987    21932819.498    46454409.400 9 -59982560.859 7
  22496410.326    22496410.236    75428664.104 9 -81622527.317 8
  24623754.964    24623756.953    12414662.452 8 -31908405.357 8
 86  6 18  4 22 47.0800000  0  3G12G13G 7
  21935855.141    21935856.964    46470368.693 9 -59970125.049 8
  22498330.870    22498331.438    75438750.234 8 -81614667.997 8
  24623523.985    24623525.860    12413454.823 8 -31909346.367 7
 86  6 18  4 22 53.0800000  0  3G12G13G 7
  21938894.735    21938896.845    46486345.367 9 -59957675.695 8
  22500248.388    22500250.851    75448837.371 9 -81606807.895 8
  24623299.073    24623301.005    12412269.632 9 -31910269.882 6
 86  6 18  4 22 59.0800000  0  3G12G13G 7
  21941938.515    21941941.648    46502339.272 9 -59945212.934 8
  22502168.238    22502170.888    75458925.469 9 -81598947.036 8
                  24623080.329                   -31911171.166 6
 86  6 18  4 23  5.0800000  0  3G12G13G 7
  21944984.338    21944987.188    46518350.424 8 -59932736.725 8
  22504087.737    22504090.809    75469014.440 9 -81591085.501 8
  24622867.622    24622868.423    12374669.774 8 -31912044.825 6
 86  6 18  4 23 11.0800000  0  3G12G13G 7
  21948033.287    21948037.764    46534378.853 8 -59920247.034 8
  22506008.210    22506008.978    75479104.362 9 -81583223.221 8
  24622660.712    24622659.195    12373586.438 9 -31912888.966 6
 86  6 18  4 23 17.0800000  0  3G12G13G 7
  21951086.994    21951090.638    46550424.648 8 -59907743.835 8
  22507927.952    22507929.758    75489195.112 9 -81575360.286 9
  24622461.184    24622460.898    12372538.225 8 -31913705.762 6
 86  6 18  4 23 23.0800000  0  3G12G13G 7
  21954144.936    21954148.616    46566487.620 9 -59895227.242 7
  22509848.045    22509850.617    75499286.674 9 -81567496.749 9
  24622268.926    24622266.851    12371520.564 9 -31914498.740 6
 86  6 18  4 23 29.0800000  0  3G12G13G 7
  21957204.459    21957207.864    46582567.695 9 -59882697.320 7
  22511768.425    22511770.145    75509379.209 9 -81559632.428 9
  24622080.531    24622078.771    12370529.189 9 -31915271.215 7
 86  6 18  4 23 35.0800000  0  3G12G13G 7
  21960268.820    21960269.247    46598664.935 8 -59870154.020 7
  22513689.692    22513691.075    75519472.656 9 -81551767.413 9
  24621898.060    24621893.840    12369561.223 8 -31916025.479 6
 86  6 18  4 23 41.0800000  0  3G12G13G 7
  21963334.847    21963337.757    46614779.321 9 -59857597.368 8
  22515611.294    22515612.420    75529566.986 9 -81543901.696 8
  24621715.704    24621713.200    12368614.569 8 -31916763.121 6
 86  6 18  4 23 47.0800000  0  3G12G13G 7
  21966404.558    21966406.793    46630910.692 8 -59845027.470 8
  22517533.276    22517534.080    75539662.194 9 -81536035.307 9
  24621539.787    24621539.644    12367688.161 8 -31917484.993 6
 86  6 18  4 23 53.0800000  0  3G12G13G 7
  21969477.736    21969481.602    46647059.198 9 -59832444.232 8
  22519454.250    22519455.376    75549758.271 9 -81528168.228 8
  24621367.647    24621368.248    12366784.416 8 -31918189.231 8
 86  6 18  4 23 59.0800000  0  3G12G13G 7
  21972552.971    21972557.957    46663224.766 9 -59819847.689 7
  22521375.681    22521375.748    75559855.283 9 -81520300.413 9
                  24621200.917                   -31918870.764 6
 86  6 18  4 24  5.0800000  0  3G12G13G 7
  21975632.792    21975635.978    46679407.305 8 -59807237.922 8
  22523297.806    22523296.099    75569953.218 9 -81512431.886 9
  24621041.884    24621040.897    12329470.770 9 -31919524.533 7
 86  6 18  4 24 11.0800000  0  3G12G13G 7
  21978715.475    21978719.498    46695606.842 9 -59794614.912 8
  22525219.209    22525218.653    75580052.082 9 -81504562.647 9
  24620889.692    24620889.535    12328669.520 8 -31920148.879 6
 86  6 18  4 24 17.0800000  0  3G12G13G 7
  21981801.757    21981804.922    46711823.337 8 -59781978.684 8
  22527141.033    22527141.530    75590151.817 9 -81496692.724 9
  24620743.366    24620743.266    12327903.021 8 -31920746.157 7
 86  6 18  4 24 23.0800000  0  3G12G13G 7
  21984890.475    21984893.632    46728056.829 9 -59769329.205 7
  22529063.023    22529062.589    75600252.453 9 -81488822.094 8
  24620603.708    24620602.435    12327166.781 8 -31921319.843 7
 86  6 18  4 24 29.0800000  0  3G12G13G 7
  21987982.215    21987986.603    46744307.220 9 -59756666.565 8
  22530984.747    22530985.279    75610353.942 9 -81480950.800 9
  24620468.801    24620467.828    12326456.569 8 -31921873.261 6
 86  6 18  4 24 35.0800000  0  3G12G13G 7
  21991079.851    21991082.233    46760574.489 8 -59743990.759 9
  22532907.838    22532908.227    75620456.323 9 -81473078.810 8
  24620338.273    24620339.174    12325769.638 8 -31922408.540 7
 86  6 18  4 24 41.0800000  0  3G12G13G 7
  21994177.799    21994181.038    46776858.708 8 -59731301.762 9
  22534829.670    22534831.318    75630559.586 9 -81465206.133 9
  24620211.494    24620212.882    12325104.027 8 -31922927.193 7
 86  6 18  4 24 47.0800000  0  3G12G13G 7
  21997281.749    21997281.958    46793159.803 9 -59718599.585 8
  22536752.124    22536753.865    75640663.749 9 -81457332.760 7
  24620088.950    24620089.665    12324458.950 8 -31923429.874 6
 86  6 18  4 24 53.0800000  0  3G12G13G 7
  22000385.269    22000386.538    46809477.700 8 -59705884.347 8
  22538674.350    22538676.613    75650768.770 9 -81449458.713 8
  24619970.870    24619973.074    12323836.736 8 -31923914.693 7
 86  6 18  4 24 59.0800000  0  3G12G13G 7
  22003494.922    22003494.659    46825812.385 8 -59693156.010 7
  22540597.176    22540599.125    75660874.648 9 -81441583.995 9
                  24619860.646                   -31924376.664 6
 86  6 18  4 25  5.0800000  0  3G12G13G 7
  22006605.872    22006607.170    46842163.857 9 -59680414.599 8
  22542520.446    22542522.631    75670981.392 9 -81433708.604 8
  24619752.397    24619751.711    12286797.447 8 -31924810.645 6
 86  6 18  4 25 11.0800000  0  3G12G13G 7
  22009720.615    22009721.301    46858532.040 9 -59667660.172 8
  22544443.372    22544446.831    75681089.026 9 -81425832.528 8
  24619652.805    24619652.662    12286278.263 9 -31925215.198 6
 86  6 18  4 25 17.0800000  0  3G12G13G 7
  22012838.162    22012838.422    46874916.893 8 -59654892.751 9
  22546368.331    22546369.085    75691197.564 9 -81417955.741 8
  24619559.166    24619561.856    12285792.951 8 -31925592.974 6
 86  6 18  4 25 23.0800000  0  3G12G13G 7
  22015959.401    22015960.044    46891318.451 8 -59642112.308 9
  22548291.923    22548293.141    75701307.017 9 -81410078.238 8
  24619472.052    24619473.468    12285338.150 8 -31925947.361 5
 86  6 18  4 25 29.0800000  0  3G12G13G 7
  22019083.138    22019085.877    46907736.693 8 -59629318.887 8
  22550215.471    22550216.547    75711417.342 9 -81402200.055 9
  24619391.434    24619390.947    12284909.134 9 -31926281.652 6
 86  6 18  4 25 35.0800000  0  3G12G13G 7
  22022210.312    22022212.542    46924171.519 8 -59616512.520 8
  22552140.301    22552142.085    75721528.543 9 -81394321.201 9
  24619313.706    24619312.548    12284503.312 9 -31926597.864 7
 86  6 18  4 25 41.0800000  0  3G12G13G 7
  22025340.440    22025343.340    46940622.959 9 -59603693.227 9
  22554064.623    22554065.541    75731640.518 9 -81386441.734 8
  24619241.560    24619240.386    12284118.537 9 -31926897.661 6
 86  6 18  4 25 47.0800000  0  3G12G13G 7
  22028474.572    22028476.885    46957091.059 9 -59590860.936 9
  22555989.638    22555989.777    75741753.426 9 -81378561.550 8
  24619172.189    24619170.643    12283754.349 9 -31927181.451 5
 86  6 18  4 25 53.0800000  0  3G12G13G 7
  22031612.749    22031614.401    46973575.791 8 -59578015.693 9
  22557912.536    22557914.521    75751867.174 9 -81370680.699 8
  24619107.482    24619104.478    12283413.426 8 -31927447.104 7
 86  6 18  4 25 59.0800000  0  3G12G13G 7
  22034750.448    22034754.481    46990076.993 8 -59565157.609 9
  22559838.346    22559838.241    75761981.785 9 -81362799.192 7
                  24619045.824                   -31927689.538 6
 86  6 18  4 26  5.0800000  0  3G12G13G 7
  22037895.454    22037897.224    47006594.687 8 -59552286.683 8
  22561762.825    22561763.615    75772097.302 9 -81354916.965 7
  24618995.785    24618994.011    12246654.344 8 -31927903.761 6
 86  6 18  4 26 11.0800000  0  3G12G13G 7
  22041042.139    22041043.143    47023128.819 8 -59539402.933 9
  22563687.225    22563688.316    75782213.716 9 -81347034.048 8
  24618951.398    24618950.883    12246417.044 9 -31928088.669 7
 86  6 18  4 26 17.0800000  0  3G12G13G 7
  22044191.223    22044192.957    47039679.421 8 -59526506.360 8
  22565612.355    22565613.496    75792331.037 9 -81339150.416 8
  24618913.049    24618912.520    12246214.017 9 -31928246.872 7
 86  6 18  4 26 23.0800000  0  3G12G13G 7
  22047342.165    22047345.419    47056246.403 8 -59513597.028 9
  22567537.958    22567540.107    75802449.124 9 -81331266.197 8
  24618878.535    24618880.639    12246040.673 9 -31928381.954 7
 86  6 18  4 26 29.0800000  0  3G12G13G 7
  22050499.399    22050501.601    47072829.809 8 -59500674.902 9
  22569463.682    22569466.324    75812568.009 9 -81323381.342 9
  24618851.720    24618852.908    12245892.904 9 -31928497.089 7
 86  6 18  4 26 35.0800000  0  3G12G13G 7
  22053659.362    22053659.944    47089429.634 8 -59487739.973 9
  22571390.178    22571392.284    75822687.849 9 -81315495.770 9
  24618827.623    24618827.523    12245768.286 9 -31928594.201 8
 86  6 18  4 26 41.0800000  0  3G12G13G 7
  22056819.297    22056821.485    47106045.725 8 -59474792.357 9
  22573315.230    22573318.116    75832808.584 9 -81307609.463 8
  24618807.676    24618809.308    12245664.560 9 -31928675.026 8
 86  6 18  4 26 47.0800000  0  3G12G13G 7
  22059985.599    22059986.839    47122678.107 8 -59461832.068 8
  22575242.098    22575243.732    75842930.208 9 -81299722.492 9
  24618790.935    24618792.122    12245581.439 8 -31928739.784 8
 86  6 18  4 26 53.0800000  0  3G12G13G 7
  22063153.597    22063154.658    47139326.739 7 -59448859.095 8
  22577167.465    22577170.737    75853052.608 8 -81291834.912 7
  24618779.344    24618782.006    12245521.751 8 -31928786.301 7
 86  6 18  4 26 59.0800000  0  3G12G13G 7
  22066324.571    22066325.060    47155991.813 8 -59435873.326 8
  22579093.489    22579096.797    75863176.018 8 -81283946.537 8
                  24618775.724                   -31928809.182 7
 86  6 18  4 27  5.0800000  0  3G12G13G 7
  22069499.280    22069500.191    47172673.133 8 -59422874.896 9
  22581019.127    22581022.142    75873300.326 9 -81276057.471 9
  24618775.009    24618777.756    12209042.354 8 -31928803.728 7
 86  6 18  4 27 11.0800000  0  3G12G13G 7
  22072675.631    22072677.096    47189370.615 8 -59409863.856 7
  22582945.151    22582949.010    75883425.463 8 -81268167.746 9
  24618784.224    24618785.383    12209086.905 8 -31928769.016 7
 86  6 18  4 27 17.0800000  0  3G12G13G 7
  22075856.482    22075858.273    47206084.306 8 -59396840.182 7
  22584873.437    22584877.625    75893551.425 8 -81260277.386 8
  24618798.648    24618800.608    12209165.599 9 -31928707.703 7
 86  6 18  4 27 23.0800000  0  3G12G13G 7
  22079039.841    22079041.210    47222814.310 8 -59383803.812 8
  22586801.035    22586803.764    75903678.360 8 -81252386.268 8
  24618820.111    24618821.270    12209273.784 9 -31928623.393 7
 86  6 18  4 27 29.0800000  0  3G12G13G 7
  22082225.933    22082228.718    47239560.358 8 -59370754.947 7
  22588728.355    22588731.620    75913806.060 9 -81244494.561 9
  24618844.752    24618846.912    12209407.444 8 -31928519.248 7
 86  6 18  4 27 35.0800000  0  3G12G13G 7
  22085416.396    22085417.139    47256322.474 8 -59357693.549 8
  22590656.225    22590659.841    75923934.575 8 -81236602.215 9
  24618874.744    24618877.577    12209563.938 9 -31928397.307 8
 86  6 18  4 27 41.0800000  0  3G12G13G 7
  22088608.798    22088610.410    47273100.697 9 -59344619.604 7
  22592582.772    22592586.874    75934063.971 9 -81228709.177 8
  24618908.972    24618912.077    12209741.354 8 -31928259.054 7
 86  6 18  4 27 47.0800000  0  3G12G13G 7
  22091804.342    22091804.884    47289894.958 9 -59331533.169 9
  22594510.070    22594514.894    75944194.296 9 -81220815.406 8
  24618945.889    24618949.223    12209939.390 9 -31928104.730 8
 86  6 18  4 27 53.0800000  0  3G12G13G 7
  22095002.474    22095005.929    47306705.218 9 -59318434.280 8
  22596438.677    22596442.121    75954325.436 9 -81212921.020 8
                  24618991.035                   -31927931.917 7
 86  6 18  4 27 59.0800000  0  3G12G13G 7
  22098205.383    22098207.958    47323531.449 9 -59305322.933 8
  22598367.284    22598370.091    75964457.410 9 -81205025.954 8
  24619032.889    24619040.258    12173681.749 9 -31927735.422 7
 86  6 18  4 28  5.0800000  0  3G12G13G 7
  22101409.784    22101412.018    47340373.750 9 -59292199.064 8
  22600294.074    22600297.962    75974590.260 8 -81197130.225 9
  24619089.754    24619092.659    12173970.387 7 -31927510.163 7
 86  6 18  4 28 11.0800000  0  3G12G13G 7
  22104618.420    22104620.311    47357232.039 9 -59279062.735 8
  22602224.012    22602226.261    75984723.932 8 -81189233.847 8
  24619150.854    24619153.644    12174296.721 8 -31927255.916 7
 86  6 18  4 28 17.0800000  0  3G12G13G 7
  22107829.975    22107831.980    47374106.234 9 -59265914.033 7
  22604152.283    22604154.604    75994858.385 8 -81181336.871 8
  24619220.683    24619224.589    12174656.844 7 -31926975.279 7
 86  6 18  4 28 23.0800000  0  3G12G13G 7
  22111043.931    22111044.115    47390996.362 9 -59252752.893 8
  22606080.833    22606083.247    76004993.706 9 -81173439.209 9
  24619293.860    24619298.554    12175046.126 8 -31926671.958 7
 86  6 18  4 28 29.0800000  0  3G12G13G 7
  22114259.953    22114263.716    47407902.388 9 -59239579.372 7
  22608009.483    22608011.482    76015130.017 9 -81165540.786 8
  24619372.990    24619375.852    12175460.835 8 -31926348.785 7
 86  6 18  4 28 35.0800000  0  3G12G13G 7
  22117480.477    22117482.844    47424824.219 9 -59226393.531 7
  22609940.566    22609940.948    76025267.198 9 -81157641.683 8
  24619454.810    24619460.405    12175898.250 7 -31926007.967 7
 86  6 18  4 28 41.0800000  0  3G12G13G 7
  22120704.353    22120705.374    47441761.822 9 -59213195.417 8
  22611868.701    22611869.276    76035405.192 9 -81149741.935 8
  24619542.840    24619547.505    12176356.511 7 -31925650.869 6
 86  6 18  4 28 47.0800000  0  3G12G13G 7
  22123930.070    22123932.637    47458715.204 8 -59199984.984 8
  22613797.573    22613799.371    76045544.015 8 -81141841.544 9
  24619634.305    24619639.141    12176835.438 6 -31925277.679 6
 86  6 18  4 28 53.0800000  0  3G12G13G 7
  22127159.648    22127160.680    47475684.386 9 -59186762.244 8
  22615727.740    22615728.644    76055683.653 9 -81133940.532 9
  24619729.031    24619733.081    12177338.196 7 -31924885.942 7
 86  6 18  4 28 59.0800000  0  3G12G13G 7
  22130392.126    22130392.833    47492669.327 9 -59173527.231 7
  22617657.556    22617658.145    76065824.156 9 -81126038.835 8
                  24619835.979                   -31924470.048 6
 86  6 18  4 29  5.0800000  0  3G12G13G 7
  22133627.653    22133628.789    47509669.973 9 -59160279.973 8
  22619586.986    22619588.491    76075965.471 9 -81118136.506 8
  24619938.217    24619942.368    12141416.946 6 -31924025.468 7
 86  6 18  4 29 11.0800000  0  3G12G13G 7
  22136865.165    22136867.353    47526686.352 9 -59147020.466 7
  22621516.695    22621518.272    76086107.724 9 -81110233.462 9
  24620052.377    24620058.200    12142024.845 6 -31923551.805 6
 86  6 18  4 29 17.0800000  0  3G12G13G 7
  22140106.283    22140108.016    47543718.433 9 -59133748.717 8
  22623448.543    22623447.387    76096250.919 9 -81102329.648 9
  24620174.921    24620181.288    12142666.881 6 -31923051.908 7
 86  6 18  4 29 23.0800000  0  3G12G13G 7
  22143350.026    22143352.923    47560766.048 9 -59120464.855 8
  22625377.866    22625378.169    76106394.914 9 -81094425.233 9
  24620301.642    24620306.894    12143337.294 7 -31922529.503 6
 86  6 18  4 29 29.0800000  0  3G12G13G 7
  22146596.872    22146599.432    47577829.269 9 -59107168.840 7
  22627308.613    22627309.967    76116539.652 9 -81086520.249 8
  24620436.750    24620439.426    12144032.731 6 -31921987.621 6
 86  6 18  4 29 35.0800000  0  3G12G13G 7
  22149846.546    22149848.674    47594908.124 9 -59093860.655 8
  22629239.502    22629239.262    76126685.216 9 -81078614.614 9
  24620574.004    24620577.624    12144750.868 7 -31921428.044 7
 86  6 18  4 29 41.0800000  0  3G12G13G 7
  22153099.691    22153103.078    47612002.522 9 -59080540.348 7
  22631170.571    22631171.518    76136831.654 9 -81070708.303 8
  24620712.803    24620718.584    12145489.709 6 -31920852.304 5
 86  6 18  4 29 47.0800000  0  3G12G13G 7
  22156356.395    22156358.272    47629112.474 9 -59067207.928 8
  22633100.931    22633101.613    76146979.056 9 -81062801.237 8
  24620856.983    24620860.803    12146249.197 7 -31920260.514 6
 86  6 18  4 29 53.0800000  0  3G12G13G 7
  22159614.749    22159616.693    47646237.947 9 -59053863.408 8
  22635032.951    22635032.817    76157127.286 9 -81054893.514 8
                  24621011.651                   -31919649.861 6
 86  6 18  4 29 59.0800000  0  3G12G13G 7
  22162876.683    22162877.680    47663378.918 9 -59040506.820 7
  22636963.676    22636964.236    76167276.397 9 -81046985.109 8
  24621202.607    24621166.032    12110543.317 6 -31919014.829 6
 86  6 18  4 30  5.0800000  0  3G12G13G 7
  22166141.422    22166142.790    47680535.271 9 -59027138.234 7
  22638895.166    22638894.790    76177426.336 9 -81039076.068 8
  24621322.060    24621328.385    12111395.285 7 -31918350.981 5
 86  6 18  4 30 11.0800000  0  3G12G13G 7
  22169409.165    22169411.597    47697707.040 9 -59013757.640 7
  22640825.712    22640827.081    76187577.162 9 -81031166.332 8
  24621490.508    24621495.859    12112284.443 5 -31917658.133 6
 86  6 18  4 30 17.0800000  0  3G12G13G 7
  22172679.896    22172681.540    47714894.272 9 -59000365.003 7
  22642758.856    22642758.372    76197728.840 9 -81023255.934 7
  24621665.080    24621671.634    12113206.516 7 -31916939.231 6
 86  6 18  4 30 23.0800000  0  3G12G13G 7
  22175953.943    22175954.457    47732096.918 9 -58986960.354 7
  22644688.715    22644691.071    76207881.414 8 -81015344.836 9
  24621847.294    24621854.963    12114157.750 6 -31916198.008 7
 86  6 18  4 30 29.0800000  0  3G12G13G 7
  22179229.374    22179230.697    47749314.890 9 -58973543.758 8
  22646622.015    22646621.897    76218034.770 9 -81007433.132 8
  24622032.283    24622040.296    12115133.750 6 -31915437.499 6
 86  6 18  4 30 35.0800000  0  3G12G13G 7
  22182509.445    22182510.993    47766548.168 9 -58960115.221 7
  22648554.529    22648555.605    76228188.882 8 -80999520.830 8
  24622223.768    24622230.021    12116132.150 6 -31914659.508 6
 86  6 18  4 30 41.0800000  0  3G12G13G 7
  22185791.563    22185792.810    47783796.797 8 -58946674.742 7
  22650486.313    22650487.654    76238343.869 8 -80991607.855 8
  24622417.743    24622425.871    12117151.176 7 -31913865.458 6
 86  6 18  4 30 47.0800000  0  3G12G13G 7
  22189076.700    22189078.118    47801060.731 9 -58933222.329 7
  22652418.591    22652420.647    76248499.726 8 -80983694.198 9
  24622615.811    24622622.022    12118191.028 7 -31913055.169 6
 86  6 18  4 30 53.0800000  0  3G12G13G 7
  22192365.091    22192365.355    47818339.826 8 -58919758.102 7
  22654352.084    22654353.461    76258656.411 9 -80975779.892 9
                  24622824.697                   -31912225.757 6
 86  6 18  4 30 59.0800000  0  3G12G13G 7
  22195656.577    22195657.238    47835634.104 9 -58906282.044 7
  22656284.262    22656286.132    76268813.978 9 -80967864.909 8
  24623069.155    24623032.538    12082762.126 7 -31911371.823 6
 86  6 18  4 31  5.0800000  0  3G12G13G 7
  22198950.003    22198951.099    47852943.607 9 -58892794.126 8
  22658217.498    22658218.610    76278972.409 9 -80959949.241 8
  24623245.845    24623246.775    12083894.949 7 -31910488.850 6
 86  6 18  4 31 11.0800000  0  3G12G13G 7
  22202246.540    22202248.227    47870268.289 9 -58879294.368 7
  22660149.496    22660151.932    76289131.721 8 -80952032.894 8
  24623470.786    24623472.732    12085065.187 7 -31909576.952 5
 86  6 18  4 31 17.0800000  0  3G12G13G 7
  22205546.383    22205546.371    47887608.033 9 -58865782.886 7
  22662083.942    22662085.748    76299291.823 8 -80944115.928 8
  24623699.790    24623700.791    12086268.950 7 -31908639.332 6
 86  6 18  4 31 23.0800000  0  3G12G13G 7
  22208847.768    22208850.961    47904962.869 9 -58852259.648 8
  22664017.557    22664019.635    76309452.790 8 -80936198.291 8
  24623936.350    24623933.960    12087500.565 7 -31907679.614 6
 86  6 18  4 31 29.0800000  0  3G12G13G 7
  22212153.910    22212155.272    47922332.882 8 -58838724.569 8
  22665950.665    22665954.252    76319614.700 9 -80928279.922 9
  24624173.825    24624174.913    12088757.093 7 -31906700.509 7
 86  6 18  4 31 35.0800000  0  3G12G13G 7
  22215461.873    22215463.661    47939718.002 8 -58825177.720 8
  22667885.411    22667887.774    76329777.523 9 -80920360.839 8
  24624417.969    24624416.767    12090035.784 7 -31905704.108 7
 86  6 18  4 31 41.0800000  0  3G12G13G 7
  22218773.790    22218774.944    47957118.090 8 -58811619.221 8
  22669819.455    22669822.649    76339941.192 9 -80912441.103 8
  24624662.484    24624663.071    12091334.976 8 -31904691.777 6
 86  6 18  4 31 47.0800000  0  3G12G13G 7
  22222086.847    22222089.257    47974533.224 8 -58798048.978 8
  22671754.030    22671756.479    76350105.732 9 -80904520.677 8
  24624914.784    24624915.456    12092654.984 7 -31903663.188 6
 86  6 18  4 31 53.0800000  0  3G12G13G 7
  22225404.015    22225405.927    47991963.373 8 -58784467.048 8
  22673688.253    22673689.966    76360271.049 8 -80896599.649 7
  24625170.460    24625170.560    12093999.880 8 -31902615.214 6
